TimeCST,TemperatureF,Dew PointF,Humidity,Sea Level PressureIn,VisibilityMPH,Wind Direction,Wind SpeedMPH,Gust SpeedMPH,PrecipitationIn,Events,Conditions,WindDirDegrees,DateUTC
12:54 AM,63.0,59.0,87,29.81,10.0,SSW,8.1,-,N/A,,Overcast,200,2012-12-16 06:54:00
1:54 AM,63.0,60.1,90,29.81,10.0,SSW,6.9,-,N/A,,Overcast,200,2012-12-16 07:54:00
2:54 AM,62.1,59.0,90,29.81,10.0,SSW,5.8,-,N/A,,Overcast,200,2012-12-16 08:54:00
3:54 AM,60.1,57.9,93,29.81,10.0,SSW,4.6,-,N/A,,Overcast,200,2012-12-16 09:54:00
4:54 AM,60.1,59.0,96,29.81,10.0,SSW,4.6,-,N/A,,Overcast,210,2012-12-16 10:54:00
4:58 AM,60.8,59.0,94,29.81,10.0,SSW,4.6,-,N/A,,Overcast,210,2012-12-16 10:58:00
5:15 AM,60.8,59.0,94,29.82,10.0,SSW,4.6,-,N/A,,Overcast,200,2012-12-16 11:15:00
5:29 AM,60.8,59.0,94,29.81,10.0,SSW,4.6,-,N/A,,Overcast,200,2012-12-16 11:29:00
5:54 AM,59.0,57.0,93,29.80,9.0,Calm,Calm,-,N/A,,Overcast,0,2012-12-16 11:54:00
6:00 AM,57.2,57.2,100,29.80,9.0,Calm,Calm,-,N/A,,Overcast,0,2012-12-16 12:00:00
6:06 AM,57.2,57.2,100,29.81,10.0,Calm,Calm,-,N/A,,Overcast,0,2012-12-16 12:06:00
6:54 AM,61.0,59.0,93,29.85,7.0,SW,5.8,-,N/A,,Overcast,220,2012-12-16 12:54:00
7:54 AM,60.1,59.0,96,29.82,9.0,South,8.1,-,N/A,,Overcast,180,2012-12-16 13:54:00
8:54 AM,61.0,59.0,93,29.82,10.0,SSW,8.1,-,N/A,,Overcast,200,2012-12-16 14:54:00
9:09 AM,60.8,59.0,94,29.82,10.0,SSW,11.5,-,N/A,,Overcast,200,2012-12-16 15:09:00
9:13 AM,60.8,59.0,94,29.82,2.0,SSW,9.2,-,N/A,,Overcast,200,2012-12-16 15:13:00
9:41 AM,60.8,59.0,94,29.81,1.0,South,11.5,-,N/A,,Overcast,170,2012-12-16 15:41:00
9:54 AM,61.0,59.0,93,29.79,1.0,South,8.1,-,N/A,,Overcast,170,2012-12-16 15:54:00
10:11 AM,60.8,59.0,94,29.78,1.0,South,9.2,-,N/A,,Overcast,170,2012-12-16 16:11:00
10:19 AM,62.6,59.0,88,29.79,2.0,South,9.2,-,N/A,,Overcast,190,2012-12-16 16:19:00
10:35 AM,62.6,59.0,88,29.80,2.0,SSW,11.5,-,N/A,,Overcast,200,2012-12-16 16:35:00
10:54 AM,62.1,59.0,90,29.81,2.0,SSW,9.2,-,N/A,,Overcast,200,2012-12-16 16:54:00
11:28 AM,62.6,59.0,88,29.81,10.0,SSW,8.1,19.6,N/A,,Overcast,210,2012-12-16 17:28:00
11:54 AM,63.0,59.0,87,29.78,10.0,SSW,5.8,-,N/A,,Mostly Cloudy,200,2012-12-16 17:54:00
12:04 PM,62.6,59.0,88,29.77,10.0,SSW,10.4,-,N/A,,Mostly Cloudy,200,2012-12-16 18:04:00
12:54 PM,63.0,59.0,87,29.77,9.0,South,13.8,20.7,N/A,,Overcast,190,2012-12-16 18:54:00
1:54 PM,62.1,57.9,86,29.72,10.0,South,10.4,-,N/A,,Overcast,180,2012-12-16 19:54:00
2:18 PM,62.6,57.2,82,29.74,10.0,SW,4.6,-,N/A,,Overcast,230,2012-12-16 20:18:00
2:34 PM,62.6,57.2,82,29.73,9.0,South,6.9,-,0.01,Rain,Light Rain,170,2012-12-16 20:34:00
2:45 PM,62.6,57.2,82,29.73,10.0,SSW,8.1,-,0.01,Rain,Light Rain,200,2012-12-16 20:45:00
2:54 PM,63.0,59.0,87,29.72,10.0,South,10.4,-,0.01,,Overcast,180,2012-12-16 20:54:00
3:20 PM,62.6,59.0,88,29.69,10.0,SSE,12.7,-,0.00,Rain,Light Rain,160,2012-12-16 21:20:00
3:40 PM,62.6,59.0,88,29.72,10.0,South,8.1,-,0.00,,Overcast,190,2012-12-16 21:40:00
3:54 PM,62.6,57.2,82,29.73,10.0,South,11.5,-,N/A,,Overcast,190,2012-12-16 21:54:00
4:54 PM,62.1,57.9,86,29.74,10.0,South,10.4,-,N/A,,Mostly Cloudy,180,2012-12-16 22:54:00
5:16 PM,60.8,57.2,88,29.73,10.0,South,10.4,-,N/A,,Overcast,170,2012-12-16 23:16:00
5:43 PM,60.8,57.2,88,29.74,10.0,SSW,9.2,-,N/A,,Overcast,200,2012-12-16 23:43:00
5:54 PM,62.1,57.0,84,29.74,10.0,SSW,8.1,-,N/A,,Overcast,200,2012-12-16 23:54:00
6:31 PM,60.8,57.2,88,29.75,10.0,SSW,6.9,-,N/A,,Overcast,200,2012-12-17 00:31:00
6:54 PM,62.1,57.0,84,29.75,10.0,SSW,10.4,-,N/A,,Overcast,200,2012-12-17 00:54:00
7:54 PM,61.0,57.0,87,29.76,10.0,SSW,10.4,-,N/A,,Overcast,200,2012-12-17 01:54:00
8:31 PM,60.8,57.2,88,29.76,10.0,SSW,8.1,-,N/A,,Overcast,200,2012-12-17 02:31:00
8:54 PM,61.0,57.0,87,29.76,10.0,SSW,9.2,-,N/A,,Overcast,210,2012-12-17 02:54:00
9:43 PM,60.8,57.2,88,29.76,8.0,SSW,9.2,-,0.01,,Overcast,210,2012-12-17 03:43:00
9:54 PM,60.1,57.9,93,29.76,10.0,SSW,5.8,-,0.01,Rain,Light Rain,210,2012-12-17 03:54:00
10:54 PM,60.1,57.0,90,29.74,10.0,SSW,8.1,-,0.00,,Overcast,200,2012-12-17 04:54:00
11:27 PM,60.8,57.2,88,29.75,10.0,SSW,8.1,-,N/A,,Overcast,200,2012-12-17 05:27:00
11:50 PM,60.8,57.2,88,29.75,10.0,SW,10.4,16.1,N/A,,Overcast,220,2012-12-17 05:50:00
11:54 PM,60.1,57.0,90,29.75,10.0,SSW,10.4,-,N/A,,Overcast,210,2012-12-17 05:54:00